Location: Unnamed
(23.5608°S, 46.6833°W)
Time: 06:30:44
(UTC-03:00)

XW-2D - Visible Passes

Search period start: 24 July 2024 00:00
Search period end: 03 August 2024 00:00
Orbit: 398 x 410 km, 97.5° (Epoch: 24 July)

Date Brightness Start Highest point End Pass type
(mag) Time Alt. Az. Time Alt. Az. Time Alt. Az.
24 Jul ? 06:04:04 10° ENE 06:05:42 14° ESE 06:07:22 10° SE visible
24 Jul ? 19:02:16 29° NNE 19:02:16 29° NNE 19:04:08 10° N visible
25 Jul ? 19:45:31 18° NW 19:45:31 18° NW 19:46:37 10° NW visible
26 Jul ? 05:58:47 10° E 05:59:33 11° ESE 06:00:19 10° ESE visible
26 Jul ? 18:55:54 24° NE 18:55:54 24° NE 18:57:38 10° NNE visible
27 Jul ? 19:38:52 22° NW 19:38:52 22° NW 19:40:13 10° NNW visible
28 Jul ? 18:49:02 19° NE 18:49:02 19° NE 18:50:32 10° NNE visible
29 Jul ? 19:31:45 25° NW 19:31:45 25° NW 19:33:16 10° NNW visible
30 Jul ? 18:41:40 15° ENE 18:41:40 15° ENE 18:42:48 10° NE visible
31 Jul ? 19:24:08 28° NNW 19:24:08 28° NNW 19:25:46 10° NNW visible
01 Aug ? 18:33:49 11° ENE 18:33:49 11° ENE 18:34:17 10° NE visible
02 Aug ? 19:16:02 29° N 19:16:02 29° N 19:17:41 10° N visible
